User: anonymous   Login
Location: Unspecified
(0.0000°N, 0.0000°E)
Time: 08:57:09
(UTC+00:00)
Language:

AOBA-VELOX 3 - Orbit

View from above orbital plane
View from above orbital plane
View from above satellite
View from above satellite

Ground track
Ground track

The orbit data is extracted from the following two-line orbital elements,

1 41935U 98067KX  17204.58479179 +.00012417 +00000-0 +15404-3 0  9998
2 41935 051.6382 211.9579 0005844 048.8341 311.3156 15.60438868029327
Epoch (UTC): 23 July 2017 14:02:06
Eccentricity: 0.0005844
inclination: 51.6382°
perigee height: 382 km
apogee height: 390 km
right ascension of ascending node: 211.9579°
argument of perigee: 48.8341°
revolutions per day: 15.60438868
mean anomaly at epoch: 311.3156°
orbit number at epoch: 2932

The dashed part of the orbit path shows where the satellite is in the earth's shadow,  

DLR